Regional Weather Roundup
Issued by NWS

Home | Current Version | Previous Version | Text Only | Print | Product List | Glossary Off
Versions: 1 2 3 4 5 6 7 8 9 10 11 12 13 14 15 16 17 18 19 20 21 22 23 24 25 26 27 28 29 30 31 32 33 34 35 36 37 38 39 40 41 42 43 44 45 46 47 48 49 50

000
ASUS45 KSLC 020710
RWRUT
UTAH REGIONAL WEATHER ROUNDUP
NATIONAL WEATHER SERVICE SALT LAKE CITY UT
100 AM MDT SUN AUG 02 2015

UTZ001>011-023>025-020800-

NORTHERN UTAH

CITY           SKY/WX    TMP DP  RH WIND       PRES   REMARKS
BRIGHAM CITY   PTCLDY    72  46  39 CALM      30.00F
HILL AFB       CLEAR     75  37  24 SE12      30.03F
LOGAN          CLEAR     63  43  48 CALM      30.03S
OGDEN          PTCLDY    77  35  21 VRB5      30.01S
PROVO AIRPORT  PTCLDY    66  39  37 NE6       30.03S
SALT LAKE CITY PTCLDY    75  41  29 S7        29.98F
VERNAL         PTCLDY    68  32  26 W6        30.10R
WENDOVER       MOCLDY    75  36  23 S3        30.01S
HEBER CITY     PTCLDY    54  41  62 SE3       30.13S
WEST JORDAN    CLEAR     72  36  26 CALM      30.04S

$$

UTZ012>022-026-027-020800-

SOUTHERN/CENTRAL UTAH

CITY           SKY/WX    TMP DP  RH WIND       PRES   REMARKS
BLANDING       CLOUDY    65  55  70 NE14      30.26F
BRYCE CANYON   CLOUDY    59  49  69 W5        30.29S
CEDAR CITY     CLOUDY    69  50  50 SW3       30.12F
DELTA          MOCLDY    72  26  18 S7        30.03R
HANKSVILLE     MOCLDY    79  52  38 SE8       30.05S
MILFORD        CLOUDY    76  48  37 W7        30.06F
MOAB/CYNLANDS  CLEAR     76  51  41 NE13      30.05R
PRICE          PTCLDY    72  45  37 NE5       30.15S
ST GEORGE      MOSUNNY   81  54  39 E3        29.98S
KANAB          CLOUDY    72  57  60 CALM      30.16S

$$

REGIONAL REPORTS     COLORADO/ARIZONA

CITY           SKY/WX    TMP DP  RH WIND       PRES   REMARKS
CRAIG, CO      CLEAR     55  43  63 E3        30.18R
GRAND JUNCTION MOCLDY    73  51  46 SE12      30.09R
RIFLE          MOCLDY    70  49  47 S3        30.15S
MONTROSE       CLOUDY    65  56  72 SE7       30.20F
CORTEZ         CLOUDY    64  59  83 NE3       30.21R
PAGE, AZ       CLOUDY    82  54  37 N6        30.03S
GRAND CANYON   MOCLDY    60  55  83 CALM      30.23S
KINGMAN        MOCLDY    75  56  51 SE9       30.01F
FLAGSTAFF      CLEAR     57  54  89 CALM      30.26F

$$

REGIONAL REPORTS    NEVADA/IDAHO/WYOMING

CITY           SKY/WX    TMP DP  RH WIND       PRES   REMARKS
LAS VEGAS, NV  CLOUDY    84  57  39 N14G22    29.89S
ELY            CLOUDY    69  43  38 SW10      30.23R
ELKO           PTCLDY    75  36  24 CALM      30.08R
POCATELLO, ID  CLEAR     64  39  39 E6        30.03S
BURLEY         PTCLDY    66  40  38 S7        29.98S
EVANSTON, WY   CLEAR     65  27  23 S5        30.25S
ROCK SPRINGS   CLEAR     64  24  21 SW3       30.19S
KEMMERER       PTCLDY    61  30  31 N12       30.25F

$$


USA.gov is the U.S. government's official web portal to all federal, state and local government web resources and services.